Flag for Germany Weather past 2 weeks in Emmerich am Rhein, North Rhine-Westphalia, Germany

Now
64 °F

Passing clouds.


Feels Like: 64 °F
Forecast: 51 / 59 °F
Wind: 6 mph from Northwest

Location: Niederrhein

Current Time: May 24, 2015 at 9:45:32 PM

Latest Report: May 24, 2015 at 8:50 PM


Visibility: N/A

Pressure: 30.04 "Hg

Humidity: 37%

Dew point: 37 °F

Location of Emmerich am RheinLocation

Historic Weather in Emmerich am Rhein — Graph

°F

Emmerich am Rhein temperature yesterday

Maximum temperature yesterday: 64 °F (at 11:20 AM)
Minimum temperature yesterday: 52 °F (at 11:50 PM)
Average temperature yesterday: 58 °F

Past Weeks' High & Low Weather Summary

 TemperatureHumidityPressure
High81 °F (May 11, 4:50 PM)100% (May 21, 4:50 AM)30.36 "Hg (May 21, 4:50 AM)
Low39 °F (May 14, 5:20 AM)30% (May 11, 4:50 PM)29.65 "Hg (May 18, 5:50 PM)
Average57 °F63%30.08 "Hg
* Reported May 9 8:20 PM — May 24 8:20 PM, Emmerich am Rhein, Weather by CustomWeather, © 2015

Note: Actual official high and low records may vary slightly from our data, if they occured in-between our weather recording intervals... More about our weather records

Advertising

Emmerich am Rhein weather history for previous 24 hours

 ConditionsComfort  
Time TempWeatherWind HumidityBarometerVisibility
8:20 PM
Sun, May 24
66 °FPassing clouds.7 mph43%30.04 "HgN/A
7:50 PM68 °FPassing clouds.6 mph40%30.04 "HgN/A
7:20 PM68 °FPassing clouds.6 mph40%30.04 "HgN/A
6:50 PM68 °FSunny.5 mph40%30.04 "Hg10 mi
6:20 PM68 °FSunny.7 mph40%30.04 "Hg10 mi
5:50 PM68 °FSunny.2 mph43%30.04 "Hg10 mi
5:20 PM68 °FPassing clouds.6 mph43%30.07 "HgN/A
4:50 PM68 °FSunny.6 mph43%30.07 "Hg10 mi
4:20 PM68 °FSunny.6 mph43%30.07 "Hg10 mi
3:50 PM66 °FSunny.2 mph46%30.09 "Hg10 mi
3:20 PM64 °FScattered clouds.3 mph52%30.09 "HgN/A
2:50 PM66 °FSunny.3 mph46%30.09 "Hg10 mi
2:20 PM64 °FSunny.3 mph52%30.09 "Hg10 mi
1:50 PM63 °FSunny.6 mph52%30.09 "Hg10 mi
1:20 PM61 °FSunny.3 mph52%30.12 "Hg10 mi
12:50 PM63 °FScattered clouds.3 mph52%30.12 "HgN/A
12:20 PM59 °FScattered clouds.3 mph59%30.12 "HgN/A
11:50 AM59 °FSunny.2 mph59%30.12 "Hg10 mi
11:20 AM59 °FSunny.2 mph59%30.12 "Hg10 mi
10:50 AM59 °FSunny.3 mph63%30.12 "Hg10 mi
10:20 AM57 °FSunny.1 mph63%30.15 "Hg10 mi
9:50 AM54 °FSunny.No wind72%30.15 "Hg10 mi
9:20 AM54 °FSunny.2 mph77%30.15 "Hg10 mi
8:50 AM50 °FSunny.1 mph76%30.15 "Hg10 mi
8:20 AM48 °FSunny.2 mph82%30.15 "Hg10 mi
7:50 AM46 °FSunny.2 mph87%30.15 "Hg10 mi
7:20 AM45 °FPassing clouds.2 mph87%30.15 "HgN/A
6:50 AM45 °FPassing clouds.3 mph87%30.15 "HgN/A
6:20 AM45 °FPassing clouds.2 mph87%30.15 "HgN/A
5:50 AM45 °FClear.2 mph87%30.15 "Hg10 mi
5:20 AM45 °FClear.2 mph87%30.15 "Hg10 mi
4:50 AM45 °FClear.3 mph87%30.15 "Hg10 mi
4:20 AM45 °FClear.3 mph87%30.15 "Hg10 mi
11:50 PM
Sat, May 23
52 °FClear.3 mph72%30.18 "Hg10 mi
11:20 PM54 °FSunny.3 mph67%30.18 "Hg10 mi
10:50 PM54 °FSunny.3 mph72%30.18 "Hg10 mi
10:20 PM54 °FSunny.2 mph72%30.18 "Hg10 mi
9:50 PM55 °FSunny.2 mph72%30.18 "Hg10 mi
9:20 PM57 °FSunny.3 mph67%30.18 "Hg10 mi
Weather by CustomWeather, © 2015

See weather overviewHow to use our weather pages